EZY922 EGGW-LFLL

Flight info

Callsign EZY922
Flight time N/A
Altitude 25000
Route RODNI N27 ICTAM Q63 CPT DCT MID/N0376F270 UL612 OGULO DCT OKASI DCT OKEKO DCT OKEPI DCT MOU/N0338F190 A3 FEDZI
Aircraft A20N/M-SDE2E3FGHIRWXY/LB1

Departure

Time N/A
Airport London Luton Airport (EGGW)

Arrival

Time 2026-05-05 01:12
Airport Lyon Saint-Exupéry Airport (LFLL)
Time Latitude Longitude Altitude Speed Heading
2026-05-04 23:56 50.15646 0.31399 24994 ft 406 kts 148°
2026-05-04 23:57 50.13294 0.33818 24987 ft 405 kts 148°
2026-05-04 23:57 50.10940 0.36237 24991 ft 405 kts 148°
2026-05-04 23:57 50.08582 0.38655 24990 ft 405 kts 148°
2026-05-04 23:57 50.06227 0.41068 24991 ft 405 kts 148°
2026-05-04 23:58 50.03872 0.43475 24982 ft 405 kts 148°
2026-05-04 23:58 50.01515 0.45881 24984 ft 405 kts 148°
2026-05-04 23:58 49.99163 0.48281 24982 ft 405 kts 148°
2026-05-04 23:58 49.96805 0.50683 24982 ft 405 kts 148°
2026-05-04 23:59 49.94476 0.53052 24980 ft 405 kts 148°
2026-05-04 23:59 49.92122 0.55445 24976 ft 405 kts 148°
2026-05-04 23:59 49.89763 0.57839 24976 ft 405 kts 148°
2026-05-04 23:59 49.87401 0.60234 24975 ft 405 kts 148°
2026-05-05 00:00 49.85079 0.62709 24974 ft 406 kts 143°
2026-05-05 00:00 49.84331 0.63634 24972 ft 406 kts 142°
2026-05-05 00:00 49.80700 0.68240 24969 ft 406 kts 142°
2026-05-05 00:00 49.78516 0.70999 24968 ft 406 kts 142°
2026-05-05 00:01 49.76325 0.73757 24968 ft 406 kts 142°
2026-05-05 00:01 49.74134 0.76511 24969 ft 406 kts 142°
2026-05-05 00:01 49.71939 0.79264 24965 ft 406 kts 142°
2026-05-05 00:01 49.69750 0.82006 24965 ft 405 kts 142°
2026-05-05 00:02 49.67560 0.84746 24967 ft 406 kts 142°
2026-05-05 00:02 49.65364 0.87490 24961 ft 405 kts 142°
2026-05-05 00:02 49.63176 0.90222 24955 ft 405 kts 142°
2026-05-05 00:02 49.60983 0.92956 24953 ft 405 kts 142°
2026-05-05 00:03 49.58788 0.95690 24952 ft 405 kts 142°
2026-05-05 00:03 49.56623 0.98383 24948 ft 405 kts 142°
2026-05-05 00:03 49.54432 1.01105 24946 ft 405 kts 142°
2026-05-05 00:03 49.52239 1.03825 24944 ft 405 kts 142°
2026-05-05 00:04 49.50044 1.06545 24939 ft 405 kts 141°
2026-05-05 00:04 49.47853 1.09257 24937 ft 404 kts 141°
2026-05-05 00:04 49.45658 1.11972 24939 ft 404 kts 141°
2026-05-05 00:04 49.43466 1.14679 24939 ft 404 kts 141°
2026-05-05 00:05 49.41278 1.17378 24938 ft 404 kts 141°
2026-05-05 00:05 49.39092 1.20071 24943 ft 404 kts 141°
2026-05-05 00:05 49.36898 1.22771 24942 ft 403 kts 141°
2026-05-05 00:05 49.34709 1.25462 24941 ft 403 kts 141°
2026-05-05 00:06 49.32520 1.28152 24938 ft 403 kts 141°
2026-05-05 00:06 49.30369 1.30791 24939 ft 403 kts 141°
2026-05-05 00:06 49.28175 1.33480 24937 ft 403 kts 141°
2026-05-05 00:06 49.26730 1.35249 24939 ft 403 kts 141°
2026-05-05 00:07 49.24541 1.37926 24935 ft 403 kts 141°
2026-05-05 00:07 49.22349 1.40604 24937 ft 403 kts 142°
2026-05-05 00:07 49.19448 1.44144 24935 ft 403 kts 142°
2026-05-05 00:07 49.17260 1.46809 24938 ft 403 kts 142°
2026-05-05 00:08 49.15069 1.49475 24936 ft 403 kts 142°
2026-05-05 00:08 49.12878 1.52138 24934 ft 403 kts 142°
2026-05-05 00:08 49.11393 1.53941 24930 ft 403 kts 142°
2026-05-05 00:08 49.09225 1.56571 24927 ft 403 kts 142°
2026-05-05 00:09 49.07028 1.59232 24923 ft 403 kts 142°
2026-05-05 00:09 49.04807 1.61920 24923 ft 403 kts 142°
2026-05-05 00:09 49.02639 1.64542 24921 ft 404 kts 142°
2026-05-05 00:09 49.00436 1.67201 24921 ft 403 kts 142°
2026-05-05 00:10 48.98234 1.69857 24921 ft 403 kts 142°
2026-05-05 00:10 48.96036 1.72506 24921 ft 404 kts 142°
2026-05-05 00:10 48.93827 1.75165 24918 ft 404 kts 143°
2026-05-05 00:10 48.91626 1.77811 24919 ft 404 kts 143°
2026-05-05 00:11 48.89418 1.80463 24919 ft 404 kts 143°
2026-05-05 00:11 48.87210 1.83112 24915 ft 404 kts 143°
2026-05-05 00:11 48.85004 1.85754 24916 ft 405 kts 143°
2026-05-05 00:11 48.82795 1.88399 24913 ft 404 kts 143°
2026-05-05 00:12 48.80582 1.91043 24913 ft 405 kts 143°
2026-05-05 00:12 48.78369 1.93685 24911 ft 405 kts 143°
2026-05-05 00:12 48.76159 1.96319 24911 ft 404 kts 143°
2026-05-05 00:12 48.73949 1.98950 24909 ft 405 kts 143°
2026-05-05 00:13 48.71731 2.01587 24913 ft 405 kts 143°
2026-05-05 00:13 48.69518 2.04217 24911 ft 404 kts 143°
2026-05-05 00:13 48.67333 2.06810 24910 ft 405 kts 143°
2026-05-05 00:13 48.65087 2.09473 24911 ft 405 kts 143°
2026-05-05 00:14 48.62870 2.12096 24912 ft 405 kts 143°
2026-05-05 00:14 48.60682 2.14684 24909 ft 405 kts 144°
2026-05-05 00:14 48.58461 2.17308 24914 ft 405 kts 144°
2026-05-05 00:14 48.56295 2.20031 24913 ft 406 kts 139°
2026-05-05 00:15 48.54300 2.23047 24915 ft 407 kts 136°
2026-05-05 00:15 48.52316 2.26084 24916 ft 407 kts 136°
2026-05-05 00:15 48.50325 2.29121 24912 ft 406 kts 137°
2026-05-05 00:15 48.48334 2.32147 24914 ft 407 kts 137°
2026-05-05 00:16 48.46341 2.35168 24911 ft 407 kts 137°
2026-05-05 00:16 48.44345 2.38188 24914 ft 407 kts 137°
2026-05-05 00:16 48.42346 2.41210 24913 ft 407 kts 137°
2026-05-05 00:16 48.40350 2.44221 24911 ft 407 kts 137°
2026-05-05 00:17 48.38350 2.47235 24913 ft 406 kts 137°
2026-05-05 00:17 48.36354 2.50240 24911 ft 407 kts 137°
2026-05-05 00:17 48.34352 2.53250 24908 ft 407 kts 137°
2026-05-05 00:17 48.32355 2.56250 24908 ft 407 kts 137°
2026-05-05 00:18 48.30369 2.59197 24911 ft 406 kts 139°
2026-05-05 00:18 48.28188 2.61883 24905 ft 404 kts 146°
2026-05-05 00:18 48.25817 2.64131 24902 ft 403 kts 153°
2026-05-05 00:18 48.23301 2.65946 24902 ft 402 kts 158°
2026-05-05 00:19 48.20778 2.67751 24902 ft 402 kts 153°
2026-05-05 00:19 48.18312 2.69741 24902 ft 402 kts 153°
2026-05-05 00:19 48.15848 2.71731 24899 ft 402 kts 153°
2026-05-05 00:19 48.13384 2.73717 24898 ft 402 kts 154°
2026-05-05 00:20 48.10916 2.75702 24903 ft 402 kts 154°
2026-05-05 00:20 48.08448 2.77664 24899 ft 402 kts 155°
2026-05-05 00:20 48.05891 2.79353 24895 ft 401 kts 159°
2026-05-05 00:20 48.03324 2.80977 24896 ft 401 kts 159°
2026-05-05 00:21 48.00759 2.82605 24900 ft 401 kts 159°
2026-05-05 00:21 47.98190 2.84238 24893 ft 401 kts 159°
2026-05-05 00:21 47.95624 2.85868 24895 ft 401 kts 159°
2026-05-05 00:21 47.93061 2.87495 24894 ft 401 kts 159°
2026-05-05 00:22 47.90526 2.89102 24896 ft 401 kts 159°
2026-05-05 00:22 47.87964 2.90725 24891 ft 401 kts 159°
2026-05-05 00:22 47.85398 2.92349 24891 ft 400 kts 159°
2026-05-05 00:22 47.82828 2.93973 24890 ft 400 kts 159°
2026-05-05 00:23 47.80268 2.95588 24889 ft 400 kts 159°
2026-05-05 00:23 47.77701 2.97207 24887 ft 400 kts 159°
2026-05-05 00:23 47.75137 2.98822 24885 ft 400 kts 159°
2026-05-05 00:23 47.72578 3.00432 24886 ft 400 kts 159°
2026-05-05 00:24 47.70015 3.02042 24887 ft 400 kts 159°
2026-05-05 00:24 47.67449 3.03653 24889 ft 400 kts 159°
2026-05-05 00:24 47.64890 3.05258 24884 ft 400 kts 159°
2026-05-05 00:24 47.62325 3.06865 24886 ft 400 kts 159°
2026-05-05 00:25 47.59692 3.08513 24883 ft 400 kts 159°
2026-05-05 00:25 47.57209 3.10065 24885 ft 399 kts 159°
2026-05-05 00:25 47.54651 3.11663 24886 ft 399 kts 159°
2026-05-05 00:25 47.52084 3.13264 24884 ft 399 kts 159°
2026-05-05 00:26 47.49527 3.14857 24882 ft 399 kts 159°
2026-05-05 00:26 47.47001 3.16430 24884 ft 399 kts 159°
2026-05-05 00:26 47.44436 3.18023 24884 ft 399 kts 159°
2026-05-05 00:26 47.41879 3.19611 24884 ft 399 kts 159°
2026-05-05 00:27 47.39321 3.21199 24882 ft 399 kts 159°
2026-05-05 00:27 47.36763 3.22785 24884 ft 399 kts 159°
2026-05-05 00:27 47.34204 3.24369 24881 ft 398 kts 159°
2026-05-05 00:27 47.31651 3.25948 24883 ft 398 kts 159°
2026-05-05 00:28 47.29094 3.27527 24887 ft 398 kts 159°
2026-05-05 00:28 47.26546 3.29100 24886 ft 398 kts 159°
2026-05-05 00:28 47.23993 3.30674 24887 ft 397 kts 159°
2026-05-05 00:28 47.21444 3.32244 24886 ft 397 kts 159°
2026-05-05 00:29 47.18895 3.33812 24886 ft 397 kts 159°
2026-05-05 00:29 47.16349 3.35377 24887 ft 397 kts 159°
2026-05-05 00:29 47.13808 3.36938 24886 ft 396 kts 159°
2026-05-05 00:29 47.11263 3.38498 24882 ft 396 kts 159°
2026-05-05 00:30 47.08720 3.40055 24882 ft 396 kts 159°
2026-05-05 00:30 47.06175 3.41612 24884 ft 396 kts 159°
2026-05-05 00:30 47.03634 3.43165 24886 ft 396 kts 159°
2026-05-05 00:30 47.01093 3.44716 24888 ft 395 kts 159°
2026-05-05 00:31 46.98556 3.46263 24886 ft 395 kts 159°
2026-05-05 00:31 46.96050 3.47791 24891 ft 395 kts 159°
2026-05-05 00:31 46.93516 3.49334 24888 ft 395 kts 159°
2026-05-05 00:31 46.91120 3.50791 24889 ft 395 kts 159°
2026-05-05 00:32 46.88582 3.52332 24890 ft 394 kts 159°
2026-05-05 00:32 46.86052 3.53867 24889 ft 394 kts 159°
2026-05-05 00:32 46.83519 3.55403 24891 ft 394 kts 159°
2026-05-05 00:32 46.80986 3.56937 24893 ft 394 kts 159°
2026-05-05 00:33 46.78456 3.58468 24892 ft 394 kts 159°
2026-05-05 00:33 46.75929 3.59995 24889 ft 393 kts 159°
2026-05-05 00:33 46.73401 3.61521 24891 ft 393 kts 159°
2026-05-05 00:33 46.70911 3.63023 24893 ft 392 kts 159°
2026-05-05 00:34 46.68498 3.64437 24893 ft 392 kts 161°
2026-05-05 00:34 46.65947 3.65833 24894 ft 391 kts 161°
2026-05-05 00:34 46.63388 3.67206 24896 ft 391 kts 161°
2026-05-05 00:34 46.60839 3.68576 24897 ft 391 kts 161°
2026-05-05 00:35 46.58290 3.69956 24900 ft 391 kts 161°
2026-05-05 00:35 46.55747 3.71339 24901 ft 390 kts 161°
2026-05-05 00:35 46.53206 3.72724 24904 ft 390 kts 161°
2026-05-05 00:35 46.50665 3.74109 24904 ft 390 kts 161°
2026-05-05 00:36 46.48128 3.75491 24905 ft 390 kts 161°
2026-05-05 00:36 46.45591 3.76871 24896 ft 390 kts 161°
2026-05-05 00:36 46.43060 3.78290 24704 ft 390 kts 160°
2026-05-05 00:36 46.40547 3.79758 24464 ft 388 kts 160°
2026-05-05 00:37 46.38053 3.81223 24227 ft 386 kts 160°
2026-05-05 00:37 46.35516 3.82433 23993 ft 384 kts 167°
2026-05-05 00:37 46.32905 3.83233 23758 ft 382 kts 170°
2026-05-05 00:37 46.30299 3.83956 23519 ft 381 kts 170°
2026-05-05 00:38 46.27734 3.84676 23272 ft 380 kts 169°
2026-05-05 00:38 46.25147 3.85406 22992 ft 379 kts 169°
2026-05-05 00:38 46.22559 3.86139 22715 ft 377 kts 169°
2026-05-05 00:38 46.19991 3.86866 22448 ft 376 kts 169°
2026-05-05 00:39 46.17423 3.87592 22182 ft 375 kts 169°
2026-05-05 00:39 46.14861 3.88315 21920 ft 374 kts 169°
2026-05-05 00:39 46.12308 3.89035 21656 ft 373 kts 169°
2026-05-05 00:39 46.09766 3.89751 21405 ft 372 kts 169°
2026-05-05 00:40 46.07232 3.90465 21145 ft 371 kts 169°
2026-05-05 00:40 46.04699 3.91177 20892 ft 370 kts 169°
2026-05-05 00:40 46.02176 3.91886 20638 ft 369 kts 169°
2026-05-05 00:40 45.99665 3.92590 20389 ft 367 kts 170°
2026-05-05 00:41 45.97161 3.93292 20145 ft 366 kts 170°
2026-05-05 00:41 45.94669 3.93989 19901 ft 365 kts 170°
2026-05-05 00:41 45.92176 3.94687 19655 ft 364 kts 169°
2026-05-05 00:41 45.89724 3.95373 19419 ft 363 kts 169°
2026-05-05 00:42 45.87245 3.96065 19182 ft 362 kts 169°
2026-05-05 00:42 45.84783 3.96753 18942 ft 361 kts 169°
2026-05-05 00:42 45.82324 3.97438 18703 ft 359 kts 169°
2026-05-05 00:42 45.79877 3.98120 18464 ft 358 kts 169°
2026-05-05 00:43 45.77437 3.98800 18225 ft 357 kts 169°
2026-05-05 00:43 45.75011 3.99474 17982 ft 356 kts 170°
2026-05-05 00:43 45.72574 4.00151 17705 ft 355 kts 170°
2026-05-05 00:43 45.70157 4.00822 17434 ft 354 kts 169°
2026-05-05 00:44 45.67742 4.01493 17181 ft 353 kts 170°
2026-05-05 00:44 45.65340 4.02159 16915 ft 351 kts 170°
2026-05-05 00:44 45.62945 4.02822 16655 ft 350 kts 170°
2026-05-05 00:44 45.60561 4.03482 16399 ft 349 kts 170°
2026-05-05 00:45 45.58185 4.04138 16145 ft 348 kts 170°
2026-05-05 00:45 45.55815 4.04792 15894 ft 346 kts 170°
2026-05-05 00:45 45.53492 4.05432 15643 ft 345 kts 170°
2026-05-05 00:45 45.51107 4.06090 15397 ft 344 kts 170°
2026-05-05 00:46 45.48755 4.06739 15151 ft 343 kts 170°
2026-05-05 00:46 45.46420 4.07382 14908 ft 341 kts 170°
2026-05-05 00:46 45.44122 4.08014 14664 ft 341 kts 170°
2026-05-05 00:46 45.41801 4.08651 14428 ft 340 kts 170°
2026-05-05 00:47 45.39476 4.09290 14186 ft 339 kts 170°
2026-05-05 00:47 45.37163 4.09925 13950 ft 338 kts 170°
2026-05-05 00:47 45.34854 4.10559 13706 ft 337 kts 170°
2026-05-05 00:47 45.32551 4.11189 13442 ft 336 kts 171°
2026-05-05 00:48 45.30265 4.11814 13168 ft 335 kts 171°
2026-05-05 00:48 45.27985 4.12439 12916 ft 333 kts 171°
2026-05-05 00:48 45.25717 4.13060 12659 ft 331 kts 171°
2026-05-05 00:48 45.23454 4.13679 12395 ft 330 kts 171°
2026-05-05 00:49 45.21205 4.14293 12139 ft 328 kts 171°
2026-05-05 00:49 45.18971 4.14903 11889 ft 327 kts 171°
2026-05-05 00:49 45.16740 4.15509 11632 ft 325 kts 171°
2026-05-05 00:49 45.14522 4.16113 11381 ft 323 kts 171°
2026-05-05 00:50 45.12347 4.16705 11140 ft 322 kts 171°
2026-05-05 00:50 45.10128 4.17308 10890 ft 321 kts 171°
2026-05-05 00:50 45.07943 4.17902 10646 ft 319 kts 170°
2026-05-05 00:50 45.05897 4.19011 10431 ft 321 kts 150°
2026-05-05 00:51 45.04321 4.21188 10346 ft 317 kts 127°
2026-05-05 00:51 45.03500 4.24049 10222 ft 314 kts 104°
2026-05-05 00:51 45.03553 4.27094 10095 ft 311 kts 81°
2026-05-05 00:51 45.04245 4.29951 10003 ft 303 kts 73°
2026-05-05 00:52 45.04967 4.32775 9999 ft 306 kts 74°
2026-05-05 00:52 45.05668 4.35607 9999 ft 306 kts 75°
2026-05-05 00:52 45.06363 4.38446 9999 ft 304 kts 75°
2026-05-05 00:52 45.07052 4.41277 9998 ft 305 kts 75°
2026-05-05 00:53 45.07740 4.44110 10002 ft 305 kts 75°
2026-05-05 00:53 45.08430 4.46952 10006 ft 305 kts 75°
2026-05-05 00:53 45.09120 4.49784 10003 ft 305 kts 75°
2026-05-05 00:53 45.09807 4.52623 10004 ft 304 kts 75°
2026-05-05 00:54 45.10489 4.55452 10005 ft 303 kts 75°
2026-05-05 00:54 45.11175 4.58280 10001 ft 304 kts 75°
2026-05-05 00:54 45.11860 4.61111 10001 ft 304 kts 75°
2026-05-05 00:54 45.12542 4.63937 10001 ft 303 kts 75°
2026-05-05 00:55 45.13225 4.66773 10003 ft 304 kts 75°
2026-05-05 00:55 45.13906 4.69600 9999 ft 304 kts 75°
2026-05-05 00:55 45.14579 4.72395 10006 ft 304 kts 75°
2026-05-05 00:55 45.15260 4.75227 10004 ft 304 kts 75°
2026-05-05 00:56 45.15941 4.78061 10002 ft 305 kts 75°
2026-05-05 00:56 45.16624 4.80904 9999 ft 304 kts 75°
2026-05-05 00:56 45.17613 4.83562 9996 ft 310 kts 52°
2026-05-05 00:56 45.19309 4.85496 9999 ft 317 kts 27°
2026-05-05 00:57 45.21367 4.86566 10002 ft 315 kts 15°
2026-05-05 00:57 45.23496 4.87309 10006 ft 315 kts 13°
2026-05-05 00:57 45.25632 4.88034 10002 ft 316 kts 13°
2026-05-05 00:57 45.27753 4.88824 10005 ft 315 kts 15°
2026-05-05 00:58 45.29889 4.89569 9940 ft 317 kts 13°
2026-05-05 00:58 45.32030 4.90289 9820 ft 315 kts 13°
2026-05-05 00:58 45.34158 4.91025 9690 ft 314 kts 13°
2026-05-05 00:58 45.36276 4.91765 9555 ft 313 kts 13°
2026-05-05 00:59 45.38391 4.92504 9419 ft 313 kts 13°
2026-05-05 00:59 45.40499 4.93241 9289 ft 311 kts 14°
2026-05-05 00:59 45.42605 4.93977 9164 ft 312 kts 14°
2026-05-05 00:59 45.44711 4.94715 9031 ft 311 kts 14°
2026-05-05 01:00 45.46803 4.95448 8900 ft 309 kts 14°
2026-05-05 01:00 45.48890 4.96180 8775 ft 309 kts 14°
2026-05-05 01:00 45.50973 4.96911 8637 ft 308 kts 14°
2026-05-05 01:00 45.53048 4.97639 8517 ft 307 kts 14°
2026-05-05 01:01 45.55153 4.98137 8389 ft 307 kts
2026-05-05 01:01 45.57255 4.98035 8268 ft 306 kts 352°
2026-05-05 01:01 45.59359 4.97704 8129 ft 303 kts 353°
2026-05-05 01:01 45.61452 4.97399 8011 ft 303 kts 353°
2026-05-05 01:02 45.63548 4.97102 7886 ft 303 kts 353°
2026-05-05 01:02 45.65652 4.96806 7758 ft 302 kts 353°
2026-05-05 01:02 45.67736 4.96512 7630 ft 301 kts 353°
2026-05-05 01:02 45.69822 4.96216 7509 ft 301 kts 353°
2026-05-05 01:03 45.71897 4.95920 7354 ft 300 kts 353°
2026-05-05 01:03 45.73983 4.95622 7005 ft 301 kts 353°
2026-05-05 01:03 45.76063 4.95324 6636 ft 300 kts 353°
2026-05-05 01:03 45.78134 4.95027 6252 ft 298 kts 354°
2026-05-05 01:04 45.80194 4.94734 5861 ft 296 kts 354°
2026-05-05 01:04 45.84260 4.94150 5132 ft 290 kts 354°
2026-05-05 01:04 45.86245 4.94145 4954 ft 281 kts
2026-05-05 01:05 45.88087 4.94867 4773 ft 270 kts 22°
2026-05-05 01:05 45.89801 4.95780 4606 ft 263 kts 21°
2026-05-05 01:05 45.91426 4.96851 4412 ft 252 kts 40°
2026-05-05 01:05 45.92330 4.98284 4274 ft 238 kts 65°
2026-05-05 01:06 45.92750 5.00487 4109 ft 220 kts 90°
2026-05-05 01:06 45.92800 5.02603 3963 ft 205 kts 94°
2026-05-05 01:06 45.92674 5.04557 3859 ft 186 kts 112°
2026-05-05 01:06 45.92011 5.06000 3759 ft 165 kts 142°
2026-05-05 01:07 45.91061 5.06756 3680 ft 150 kts 162°
2026-05-05 01:07 45.90081 5.07084 3624 ft 147 kts 172°
2026-05-05 01:07 45.89087 5.07259 3564 ft 139 kts 175°
2026-05-05 01:07 45.88129 5.07381 3506 ft 137 kts 175°
2026-05-05 01:08 45.87170 5.07501 3429 ft 141 kts 175°
2026-05-05 01:08 45.86197 5.07622 3279 ft 141 kts 175°
2026-05-05 01:08 45.85554 5.07700 3170 ft 140 kts 175°
2026-05-05 01:08 45.84568 5.07822 2993 ft 142 kts 174°
2026-05-05 01:09 45.83590 5.07943 2822 ft 140 kts 175°
2026-05-05 01:09 45.82305 5.08101 2577 ft 140 kts 174°
2026-05-05 01:09 45.81326 5.08222 2388 ft 142 kts 174°
2026-05-05 01:09 45.80348 5.08342 2200 ft 142 kts 175°
2026-05-05 01:10 45.79366 5.08463 2005 ft 140 kts 175°
2026-05-05 01:10 45.78706 5.08544 1877 ft 142 kts 175°
2026-05-05 01:10 45.77725 5.08664 1666 ft 141 kts 174°
2026-05-05 01:10 45.76743 5.08785 1464 ft 141 kts 174°
2026-05-05 01:11 45.75760 5.08906 1271 ft 142 kts 174°
2026-05-05 01:11 45.74792 5.09025 1079 ft 141 kts 174°
2026-05-05 01:11 45.73819 5.09144 891 ft 141 kts 174°
2026-05-05 01:11 45.72864 5.09276 800 ft 109 kts 173°
2026-05-05 01:12 45.72458 5.09309 807 ft 37 kts 176°
2026-05-05 01:12 45.72278 5.09332 809 ft 14 kts 184°
2026-05-05 01:12 45.72173 5.09318 811 ft 16 kts 185°
2026-05-05 01:12 45.72073 5.09266 812 ft 15 kts 202°
2026-05-05 01:13 45.72010 5.09229 812 ft 0 kts 211°
2026-05-05 01:14 45.72006 5.09225 812 ft 3 kts 213°
2026-05-05 01:14 45.71987 5.09187 812 ft 8 kts 245°
2026-05-05 01:15 45.71975 5.09089 810 ft 12 kts 266°
2026-05-05 01:15 45.71969 5.08971 811 ft 10 kts 265°
2026-05-05 01:15 45.71969 5.08962 811 ft 2 kts 265°
2026-05-05 01:15 45.71966 5.08921 811 ft 7 kts 265°
2026-05-05 01:16 45.71958 5.08820 810 ft 14 kts 263°
2026-05-05 01:16 45.71951 5.08667 809 ft 16 kts 267°
2026-05-05 01:16 45.71942 5.08500 809 ft 17 kts 269°
2026-05-05 01:16 45.71962 5.08329 809 ft 18 kts 286°
2026-05-05 01:17 45.72047 5.08263 808 ft 13 kts
2026-05-05 01:17 45.72090 5.08208 807 ft 7 kts 304°
2026-05-05 01:17 45.72091 5.08204 807 ft 0 kts 298°
2026-05-05 01:17 45.72090 5.08203 807 ft 0 kts 288°
2026-05-05 01:18 45.72092 5.08202 807 ft 0 kts 300°
2026-05-05 01:18 45.72096 5.08195 807 ft 0 kts 308°
2026-05-05 01:18 45.72099 5.08191 807 ft 1 kts 308°
2026-05-05 01:19 45.72104 5.08181 807 ft 0 kts 308°
2026-05-05 01:19 45.72106 5.08178 807 ft 2 kts 312°
2026-05-05 01:19 45.72106 5.08177 807 ft 0 kts 311°
2026-05-05 01:24 45.72104 5.08165 807 ft 0 kts 285°